Regional Weather Roundup
Issued by NWS Wakefield, VA

Home | Current Version | Previous Version | Graphics & Text | Print | Product List | Glossary On
Versions: 1 2 3 4 5 6 7 8 9 10 11 12 13 14 15 16 17 18 19 20 21 22 23 24 25 26 27 28 29 30 31 32 33 34 35 36 37 38 39 40 41 42 43 44 45 46 47 48 49 50
000
ASUS41 KAKQ 120415
RWRAKQ

REGIONAL WEATHER ROUNDUP
NATIONAL WEATHER SERVICE WAKEFIELD VA
1100 PM EST MON DEC 11 2017

Note: "fair" indicates few or no clouds below 12,000 feet with no
significant weather and/or obstructions to visibility. * = Denotes
station may not report precipitation (e.g., rain,snow,etc.),
thunder or fog.

VAZ042-051-052>054-056-120500-
NORTHERN VIRGINIA

CITY           SKY/WX    TMP DP  RH WIND       PRES   REMARKS
WASH NATIONAL  CLOUDY    41  33  73 S13       29.89F
DULLES         CLOUDY    41  29  62 S14G20    29.84F
FORT BELVOIR   CLOUDY    39  31  72 S6        29.89F
QUANTICO       CLOUDY    42  34  73 S14       29.90F
FREDERICKSBRG* CLEAR     36  30  79 SE7       29.88F
STAFFORD*      PTCLDY    34  28  77 CALM      29.92F
WARRENTON      CLOUDY    41  25  53 SE6       29.85F
CULPEPER*      CLOUDY    34  27  76 CALM      29.87F
MANASSAS*      CLOUDY    40  29  64 S10       29.86F
LEESBURG*      CLOUDY    41  32  70 S12G17    29.85F
WINCHESTER     CLOUDY    37  27  65 SE6       29.78F
FRONT ROYAL*   CLOUDY    39  27  60 CALM      29.78F
LURAY*         CLOUDY    39  30  70 SW8       29.78F
$$

VAZ048-049-060>072-079>083-120500-
CENTRAL AND SOUTH CENTRAL VIRGINIA

CITY           SKY/WX    TMP DP  RH WIND       PRES   REMARKS
RICHMOND       PTCLDY    37  30  75 S6        29.92F
CHESTERFIELD*  NOT AVBL
PETERSBURG*    CLEAR     34  28  80 CALM      29.93F
HANOVER        CLEAR     35  29  78 CALM      29.92F
TAPPAHANNOCK*    N/A    N/A N/A N/A MISG        N/A
QUINTON*       FAIR      32  30  92 S7        29.93F
CHARLOTTSVILLE CLOUDY    39  28  64 S8        29.83F
GORDONSVILLE*  PTCLDY    29  27  91 CALM      29.85F
ORANGE*        PTCLDY    34  28  80 CALM      29.86F
LOUISA*        CLEAR     38  27  64 SE7       29.90F
BUMPASS*       FAIR      37  27  68 CALM      29.87F
FARMVILLE*     CLEAR     35  32  90 S3        29.87F
CREWE*         FAIR      35  32  87 CALM      29.90F
FORT PICKETT*  NOT AVBL
CHASE CITY*    FAIR      39  30  69 S3        29.91F
CLARKSVILLE*   FAIR      39  32  75 S7        29.91F
SOUTH HILL*    CLEAR     36  31  81 S8        29.98F
LAWRENCEVILLE* FAIR      36  29  78 CALM      29.93F
EMPORIA*       PTCLDY    32  30  93 CALM      29.97S
$$

VAZ088>098-120500-
SOUTHEAST VIRGINIA

CITY           SKY/WX    TMP DP  RH WIND       PRES   REMARKS
NORFOLK        CLEAR     41  33  73 S6        29.96F
VIRGINIA BEACH PTCLDY    41  30  65 S7        29.96F
NORFOLK NAVAL  PTCLDY    42  33  70 S8        29.98F
WEST POINT*    CLOUDY   N/A N/A N/A SE7       29.96F
SALUDA*        FAIR      39  35  84 S6        29.94F
NEWPORT NEWS   PTCLDY    43  34  70 S12       29.96F
LANGLEY AFB    MOCLDY    42  34  73 S8        29.95F
FORT EUSTIS    CLOUDY    42  34  73 S8        29.93F
WILLIAMSBURG*  PTCLDY    43  34  70 S5        29.96F
HR EXEC AP*    FAIR      37  33  85 S6        29.97F
FRANKLIN*      CLEAR     37  32  82 S3        29.97F
US460-WAKEFLD  PTCLDY    36  32  85 CALM      29.95F
$$

VAZ020-022-025-037-045-120500-
WEST CENTRAL AND SOUTHWEST VIRGINIA

CITY           SKY/WX    TMP DP  RH WIND       PRES   REMARKS
STAUNTON*      MOCLDY    32  26  78 S3        29.81F
WAYNESBORO*    CLOUDY    36  27  69 CALM      29.80F
HOT SPRINGS VA CLOUDY    39  23  51 SW13G18   29.75F
LYNCHBURG      PTCLDY    32  26  78 CALM      29.85F
DANVILLE       CLEAR     40  30  67 S6        29.88F
SOUTH BOSTON*  FAIR      38  29  69 S7        29.89F
MARTINSVILLE   CLEAR     29  27  92 CALM      29.89F
ROANOKE        CLOUDY    39  29  67 SE3       29.85F
BLACKSBURG     CLOUDY    33  28  83 CALM      29.85F
DUBLIN*        CLOUDY    34  28  79 CALM      29.83F
MARION*        CLEAR     29  25  83 CALM      29.85F
HILLSVILLE*    PTCLDY    39  28  65 S6        29.81F
RICHLANDS*     FAIR      44   6  21 SW12G17   29.81F
WISE*          PTCLDY    43  30  61 SW15G24   29.81F
ABINGDON*      CLEAR     35  29  79 CALM      29.85S
$$

MDZ021>025-VAZ099-100-120500-
SOUTHERN MARYLAND AND THE DELMARVA PENINSULA

CITY           SKY/WX    TMP DP  RH WIND       PRES   REMARKS
PATUXENT RIVER PTCLDY    40  32  73 S8        29.92F
BAY BRIDGE APT MOCLDY    41  32  70 S12G20    29.91F
LEONARDTOWN    CLEAR     37  32  81 SE3       29.93F
DOVER          CLOUDY    37  33  85 SE7       29.94F
GEORGETOWN     MOCLDY    34  28  79 S6        29.96F
EASTON         PTCLDY    38  29  69 S8        29.96F
CAMBRIDGE      PTCLDY    32  30  93 SE8       29.94F
SALISBURY      CLOUDY    32  28  85 CALM      29.96F
OCEAN CITY     PTCLDY    39  33  79 SW3       29.97F
WALLOPS ISLAND PTCLDY    42  34  73 S8        29.98F
ACCOMACK*      PTCLDY    37  33  84 S7        29.96F
$$

NCZ012>017-030>032-120500-
NORTH CENTRAL AND EASTERN NORTH CAROLINA

CITY           SKY/WX    TMP DP  RH WIND       PRES   REMARKS
ROANOKE RAPIDS FAIR      36  32  87 CALM      29.96S
RALEIGH        CLEAR     42  30  62 S9        29.94F
ELIZABETH CITY CLEAR     42  38  85 S6        29.98F
AHOSKIE*       CLEAR     35  31  88 S5        29.97F
EDENTON*       CLEAR     42  38  84 S6        29.99F
CURRITUCK*     CLEAR     40  34  79 CALM      29.99F
KILL DEVIL HLS CLEAR     41  33  73 CALM      29.98F
MANTEO         CLEAR     40  34  79 S3        30.00F
CAPE HATTERAS  CLEAR     35  34  96 E3        30.00F
TARBORO*       NOT AVBL
GOLDSBORO      CLEAR     40  27  61 CALM      29.97F
WASHINGTON     CLEAR     38  32  79 CALM      29.99F
GREENVILLE     CLEAR     36  30  80 SW3       30.00F
NEW BERN       CLEAR     33  32  96 CALM      30.00F
WILMINGTON     CLEAR     34  32  92 CALM      30.01F
$$

VAZ048-120500-
ELSEWHERE

CITY           SKY/WX    TMP DP  RH WIND       PRES   REMARKS
HARRISBURG PA  CLOUDY    36  27  69 SE7       29.87F
BALTIMORE      MOCLDY    40  30  67 VRB7      29.88F
ANNAPOLIS      MOCLDY    43  37  79 S12       29.90F
ANDREWS AFB    CLOUDY    38  30  73 S12       29.88F
PHILADELPHIA   CLOUDY    36  24  62 SE7       29.94F
HENDERSON NC   CLEAR     38  27  65 SW10      29.93F
GREENSBORO     CLEAR     39  30  70 S9        29.87F
ROCKY MOUNT    CLEAR     36  33  89 S3        29.97F
$$

VAZ100-120500-
MARINE

STATION/POSITION TIME  TEMP    WIND        PRES    WAVE   SWELL
                       AIR SEA DIR/SP/G            HT/PER HT/PER
                 (UTC) (F)     (DEG/KT/KT) (MB)    (FT/S) (FT/S)
BRANDYWINE LGT   0336   45     190/ 17/ 19 1014.7F
CAPE MAY NJ      0342   43 44  180/  5/  7 1014.1F
LEWES DE         0336   39 46  170/  4/  5 1014.5F
15NM E FENWICK I 0350   48 54  190/ 16/ 19 1015.2F   2/ 3   2/ 9
OCEAN-CITY-INLET 0336   44 44  230/  7/  9 1015.4F
WACHAPREAGUE VA  0336   41 43  220/  2/  3 1015.0F
THOMAS POINT MD  0400   43 48  160/ 18/ 20   N/A
GOOSES REEF MD   0400   46 48  170/ 19/ 21 1013.1    3/ 3
COVE POINT MD    0336   44     190/ 17/ 19 1014.2F
SOLOMONS ISLAND  0336   42 48  150/  8/  9 1013.2F
BISHOPS HEAD MD  0336   43 43  170/ 10/ 12 1014.4F
PINEY POINT MD   0336          190/ 14/ 16   N/A
POTOMAC MD       0400   46 49  170/ 12/ 16 1013.0    2/ 3
CAMBRIDGE MD     0336   37 45              1014.6F
LEWISETTA VA     0336   42 44  180/  6/  8 1013.8F
RAPPAHANNOCK LGT 0336          150/ 13/ 15 1015.1F
STINGRAY PT      0400   46 48  210/ 14/ 17 1014.2    2/ 3
YORK RVR RNG VA  0336   45     190/ 15/ 17 1015.0F
YORKTOWN VA      0336   42 50  160/  5/  6 1014.2F
JAMESTOWN VA     0400      47  180/  8/ 10   N/A     0
DOMINION TERM VA 0336   44     170/ 11/ 14 1014.8F
KIPTOPEKE VA     0336      48  190/ 17/ 19   N/A
CAPE HENRY VA    0336   43     170/  7/  9   N/A
WILLOUBY STN VA  0336                      1014.4F
S CRANEY ISL VA  0336   43     180/  9/ 11 1014.6F
CAPE HENRY BUOY  0400      53                N/A     2/ 9
1ST LANDING BUOY 0400   45 50  190/ 14/ 17 1014.8    1/ 3
CAPE CHARLES BUO 0351      53                N/A     3/ 3
64NM E OF VA BCH 0350   51 58  210/ 12/ 16 1015.8F   2/ 8   2/ 8
DUCK PIER NC     0336   46 54  170/ 10/ 14 1015.0F
44100 DUCK FRF   0345      55                N/A     2/ 8
44056 DUCK FRF   0400      53                N/A     2/ 9
OREGON INLET NC  0336   44 46  150/  4/  6 1015.8F
HATTERAS NC      0336   46 54  330/  1/  2 1015.5F
DIAMOND SHLS NC  0400   60 75  200/  8/ 12 1015.8
CAPE LOOKOUT NC  0400          160/  2/  2 1015.5F
$$



USA.gov is the U.S. government's official web portal to all federal, state and local government web resources and services.